Regional Weather Roundup
Issued by NWS

Home | Current Version | Previous Version | Graphics & Text | Print | Product List | Glossary Off
Versions: 1 2 3 4 5 6 7 8 9 10 11 12 13 14 15 16 17 18 19 20 21 22 23 24 25 26 27 28 29 30 31 32 33 34 35 36 37 38 39 40 41 42 43 44 45 46 47 48 49 50

792
ASUS43 KDTX 271610
RWRMI
MICHIGAN HOURLY REGIONAL WEATHER ROUNDUP
NATIONAL WEATHER SERVICE DETROIT/PONTIAC MI
1200 PM EDT TUE JUN 27 2017

NOTE: "FAIR" INDICATES FEW OR NO CLOUDS BELOW 12,000 FEET WITH NO
SIGNIFICANT WEATHER AND/OR OBSTRUCTION TO VISIBILITY.

MIZ047>049-052>055-059>063-066>070-074>076-081>083-271700-
SOUTHEAST LOWER MICHIGAN

CITY           SKY/WX    TMP DP  RH WIND       PRES   REMARKS
ADRIAN         MOSUNNY   65  42  43 NW15      30.12S
ALMA           PTSUNNY   67  49  50 W7G23     30.08S
ANN ARBOR      PTSUNNY   64  46  52 W13G20    30.09S
BAD AXE        MOSUNNY   65  50  56 NW10      30.04S
CARO           MOSUNNY   66  50  56 W10G21    30.04S
DETROIT CITY   MOSUNNY   68  44  42 NW10      30.07S
DETROIT        MOSUNNY   68  46  45 W12G20    30.09R
FLINT          MOSUNNY   66  45  46 W16G26    30.07S
GROSSE ILE     SUNNY     67  45  44 NW10G16   30.08R
HILLSDALE      PTSUNNY   64  45  48 W10G18    30.12R
HOWELL         MOSUNNY   67  41  39 W9G18     30.09R

CITY           SKY/WX    TMP DP  RH WIND       PRES   REMARKS
JACKSON        PTSUNNY   67  46  47 NW13G18   30.10F
LAMBERTVILLE   MOSUNNY   66  42  41 W7G16     30.10S
LANSING        MOSUNNY   69  47  45 W14G20    30.10S
LAPEER         PTSUNNY   66  46  48 NW9       30.07R
MASON          PTSUNNY   67  47  49 NW8       30.10S
MONROE         MOSUNNY   67  45  44 NW7G18    30.09S
MT. CLEMENS    MOSUNNY   67  49  52 W13G21    30.04S
PONTIAC        MOSUNNY   66  44  45 NW12G22   30.06F
PORT HOPE        N/A     64  50  60 NW13      30.01S
PORT HURON     SUNNY     64  46  52 W10G17    30.05R
TRI CITIES     MOSUNNY   66  49  54 W12       30.06S
MIDLAND        PTSUNNY   69  46  43 W14       30.04S
TROY           MOSUNNY   66  42  41 NW13G20   30.09R
SAGINAW HB     MOSUNNY   68  45  42 W10       30.05S
$$
MIZ043>046-050>051-056>058-064>065-071>073-077>080-271700-
SOUTHWEST LOWER MICHIGAN

CITY           SKY/WX    TMP DP  RH WIND       PRES   REMARKS
BATTLE CREEK   PTSUNNY   66  47  50 W13       30.12S
BENTON HARBOR  SUNNY     69  48  47 W17G23    30.13S
BIG RAPIDS     PTSUNNY   67  47  50 W13G20    30.06S
COLDWATER      MOSUNNY   67  43  41 NW5       30.12S
FREMONT        FAIR      68  46  45 W8        30.07S
HOLLAND        SUNNY     68  49  50 W10G17    30.11S
GRAND RAPIDS   PTSUNNY   69  51  52 W16       30.09S
IONIA          PTSUNNY   67  48  50 W13G18    30.08S
KALAMAZOO      MOSUNNY   69  44  40 NW9G21    30.12F
LUDINGTON      MOSUNNY   62  55  77 SW8       30.07S
MARSHALL       PTSUNNY   68  46  45 W7G16     30.11S
MOUNT PLEASANT MOSUNNY   66  47  49 W9G18     30.05S
MUSKEGON       MOSUNNY   67  53  61 W9        30.10R
SOUTH HAVEN    SUNNY     67  53  61 W13       30.12S
$$
MIZ016>042-271700-
NORTHERN LOWER MICHIGAN

CITY           SKY/WX    TMP DP  RH WIND       PRES   REMARKS
ALPENA         MOSUNNY   66  51  58 NW8       30.01R
BEAVER ISLAND  CLOUDY    63  50  62 W3        30.02S
BELLAIRE       MOSUNNY   65  49  55 W9        30.02F
CADILLAC       SUNNY     66  47  49 W10G17    30.05S
CHARLEVOIX     MOSUNNY   62  51  66 NW9       30.05F
FRANKFORT      MOSUNNY   62  52  69 W9        30.05S
GAYLORD        PTSUNNY   64  46  52 W10G21    30.02S
GRAYLING       MOSUNNY   66  49  54 W8        30.03F
HARBOR SPRINGS MOSUNNY   62  52  71 W7        30.02S
HOUGHTON LAKE  MOSUNNY   65  45  48 W10       30.04S
MANISTEE       SUNNY     64  54  69 SW6       30.05F
OSCODA         MOSUNNY   70  43  37 NW10G21   30.00S
PELLSTON       CLOUDY    65  46  50 W9        30.01F
ROGERS CITY    PTSUNNY   64  49  58 W5        30.01S
TRAVERSE CITY  PTSUNNY   68  51  54 W14       30.02S
$$
MIZ007>008-015-271700-
EASTERN UPPER MICHIGAN

CITY           SKY/WX    TMP DP  RH WIND       PRES   REMARKS
KINROSS        SUNNY     62  49  62 NW9       29.99S
MACKINAC ISLAN SUNNY     60  52  75 W8        30.00S
NEWBERRY       CLOUDY    63  48  57 NW5       29.99S
S. S. MARIE    SUNNY     63  49  60 W9        29.98S
MUNISING         N/A     61  49  64 NE7       30.01R
$$
MIZ004>006-011>014-085-271700-
CENTRAL UPPER MICHIGAN

CITY           SKY/WX    TMP DP  RH WIND       PRES   REMARKS
MANISTIQUE     MOSUNNY   64  50  59 S7        30.01S
ESCANABA       MOSUNNY   63  54  72 SE8       30.01F
MENOMINEE      SUNNY     66  52  60 CALM      30.03F
SAWYER-GWINN   MOSUNNY   64  46  52 NW7       30.01S
$$
MIZ001>003-009>011-084-271700-
WESTERN UPPER MICHIGAN

CITY           SKY/WX    TMP DP  RH WIND       PRES   REMARKS
IRON MOUNTAIN  SUNNY     68  46  45 NW10      30.01F
HOUGHTON       SUNNY     65  50  58 W15       29.99F
COPPER HARBOR    N/A     60  53  77 N15       29.97F
IRONWOOD       SUNNY     68  46  45 W9        30.03F
$$

ABBREVIATIONS USED IN REMARKS
   TC - TEMPERATURE IN CELSIUS
  WCI - WIND CHILL INDEX
   HX - HEAT INDEX
  VSB - VISIBILITY





USA.gov is the U.S. government's official web portal to all federal, state and local government web resources and services.